Fremont, MI

6:36 PM EST on November 20, 2019 (GMT -0500)
Fremont

Weather History for KFFX - September, 2019

Change the Weather History Date:

Friday, September 27, 2019

  Actual Average (KMKG) Record (KMKG)
Temperature  
Mean Temperature 59 °F -  
Max Temperature 66 °F 65 °F 81 °F (1946)
Min Temperature 52 °F 46 °F 27 °F (1989)
Degree Days  
Heating Degree Days 6    
Growing Degree Days 9 (Base 50)    
Moisture  
Dew Point 48 °F    
Average Humidity 67    
Maximum Humidity 97    
Minimum Humidity 38    
Precipitation  
Precipitation 0.00 in - - ()
Sea Level Pressure  
Sea Level Pressure 29.81 in    
Wind  
Wind Speed 6 mph ()    
Max Wind Speed 17 mph    
Max Gust Speed 25 mph    
Visibility 8.9 miles    
Events Rain    
Averages and records for this station are not official NWS values.
T = Trace of Precipitation, MM = Missing Value Source: Averaged Metar Reports

Daily Weather History Graph

Daily Weather History Graph

Search for Another Location

Airport or City:

Astronomy

Sep. 27, 2019 Rise Set
Actual Time 7:36 AM EDT 7:32 PM EDT
Civil Twilight 7:08 AM EDT 8:01 PM EDT
Nautical Twilight 6:34 AM EDT 8:34 PM EDT
Astronomical Twilight 6:00 AM EDT 9:08 PM EDT
Moon 5:52 AM EDT (9/27) 7:26 PM EDT (9/27)
Length of Visible Light 12h 52m
Length of Day
11h 55m
Waning Crescent, 2% of the Moon is Illuminated
Sep 27
Waning Crescent
Sep 28
New
Oct 5
First Quarter
Oct 13
Full
Oct 21
Last Quarter

Hourly Weather History & Observations

Time (EDT) Temp. Dew Point Humidity Pressure Visibility Wind Dir Wind Speed Gust Speed Precip Events Conditions
12:15 AM 52.5 °F 40.3 °F 63% 29.92 in 10.0 mi SSE 5.8 mph - N/A   Clear
12:16 AM 52.5 °F 40.5 °F 64% 29.92 in 10.0 mi SSE 4.6 mph - N/A   Clear
12:35 AM 53.1 °F 40.8 °F 63% 29.91 in 10.0 mi SSE 4.6 mph - N/A   Clear
12:36 AM 53.1 °F 40.8 °F 63% 29.91 in 10.0 mi SSE 4.6 mph - N/A   Clear
12:55 AM 53.2 °F 41.0 °F 63% 29.91 in 10.0 mi South 3.5 mph - N/A   Clear
1:00 AM 53.2 °F 41.0 °F 63% 29.91 in 10.0 mi South 3.5 mph - N/A   Clear
1:18 AM 53.6 °F 41.0 °F 62% 29.89 in 10.0 mi South 4.6 mph - N/A   Mostly Cloudy
1:36 AM 54.5 °F 40.3 °F 59% 29.89 in 10.0 mi South 4.6 mph - N/A   Overcast
1:55 AM 54.9 °F 40.1 °F 58% 29.89 in 10.0 mi South 5.8 mph - N/A   Overcast
1:56 AM 54.9 °F 39.9 °F 57% 29.89 in 10.0 mi South 5.8 mph - N/A   Overcast
2:15 AM 55.0 °F 39.7 °F 56% 29.89 in 10.0 mi South 4.6 mph - N/A   Mostly Cloudy
2:16 AM 55.0 °F 39.7 °F 56% 29.89 in 10.0 mi South 3.5 mph - N/A   Mostly Cloudy
2:39 AM 54.9 °F 40.8 °F 59% 29.91 in 10.0 mi South 3.5 mph - N/A   Mostly Cloudy
2:57 AM 55.4 °F 40.5 °F 57% 29.91 in 10.0 mi South 4.6 mph - N/A   Overcast
3:15 AM 56.1 °F 39.4 °F 53% 29.90 in 10.0 mi South 6.9 mph - N/A   Overcast
3:35 AM 55.4 °F 39.2 °F 54% 29.89 in 10.0 mi South 5.8 mph - N/A   Mostly Cloudy
3:55 AM 55.4 °F 39.4 °F 55% 29.88 in 10.0 mi South 6.9 mph - N/A   Mostly Cloudy
3:59 AM 55.6 °F 39.4 °F 55% 29.89 in 10.0 mi South 5.8 mph - N/A   Mostly Cloudy
4:17 AM 55.6 °F 39.6 °F 55% 29.89 in 10.0 mi South 3.5 mph - N/A   Overcast
4:35 AM 56.3 °F 39.6 °F 53% 29.89 in 10.0 mi South 4.6 mph - N/A   Overcast
4:55 AM 56.3 °F 39.4 °F 53% 29.89 in 10.0 mi South 4.6 mph - N/A   Overcast
5:15 AM 56.3 °F 39.6 °F 53% 29.90 in 10.0 mi South 3.5 mph - N/A   Overcast
5:38 AM 56.3 °F 39.6 °F 53% 29.90 in 10.0 mi Calm Calm - N/A   Overcast
5:56 AM 56.1 °F 39.4 °F 53% 29.90 in 10.0 mi Calm Calm - N/A   Overcast
6:15 AM 55.9 °F 39.6 °F 54% 29.90 in 10.0 mi South 3.5 mph - N/A   Overcast
6:16 AM 55.8 °F 39.6 °F 55% 29.90 in 10.0 mi SSE 4.6 mph - N/A   Overcast
6:35 AM 55.9 °F 39.7 °F 55% 29.88 in 10.0 mi SE 5.8 mph - N/A   Overcast
6:59 AM 56.3 °F 38.8 °F 52% 29.88 in 10.0 mi SE 5.8 mph - N/A   Overcast
7:17 AM 56.3 °F 38.8 °F 52% 29.88 in 10.0 mi SSE 3.5 mph - N/A   Overcast
7:35 AM 56.3 °F 38.8 °F 52% 29.89 in 10.0 mi SSE 5.8 mph - N/A   Overcast
7:55 AM 56.7 °F 38.3 °F 50% 29.88 in 10.0 mi South 6.9 mph - N/A   Overcast
7:56 AM 56.8 °F 38.3 °F 50% 29.88 in 10.0 mi South 5.8 mph - N/A   Overcast
8:15 AM 57.2 °F 38.1 °F 49% 29.87 in 10.0 mi South 6.9 mph - N/A   Overcast
8:20 AM 57.2 °F 37.9 °F 49% 29.87 in 10.0 mi South 8.1 mph - N/A   Overcast
8:37 AM 58.1 °F 37.6 °F 46% 29.87 in 10.0 mi South 9.2 mph - N/A   Overcast
8:56 AM 58.6 °F 37.6 °F 46% 29.86 in 10.0 mi South 9.2 mph 16.1 mph N/A   Overcast
9:15 AM 58.6 °F 37.2 °F 45% 29.85 in 10.0 mi SSE 11.5 mph 17.3 mph N/A   Overcast
9:35 AM 58.6 °F 37.8 °F 46% 29.84 in 10.0 mi SSE 8.1 mph - N/A   Overcast
9:59 AM 59.0 °F 37.9 °F 46% 29.82 in 10.0 mi SSE 11.5 mph 16.1 mph N/A   Overcast
10:17 AM 60.1 °F 36.9 °F 42% 29.81 in 10.0 mi South 9.2 mph 17.3 mph N/A   Overcast
10:35 AM 60.6 °F 37.0 °F 42% 29.81 in 10.0 mi South 10.4 mph 18.4 mph N/A   Overcast
10:36 AM 60.6 °F 36.9 °F 41% 29.81 in 10.0 mi South 8.1 mph 18.4 mph N/A   Overcast
10:55 AM 61.2 °F 36.9 °F 40% 29.80 in 10.0 mi South 9.2 mph 16.1 mph N/A   Overcast
10:56 AM 61.2 °F 36.9 °F 40% 29.80 in 10.0 mi South 10.4 mph 16.1 mph N/A   Overcast
11:15 AM 62.1 °F 36.7 °F 39% 29.81 in 10.0 mi South 10.4 mph 16.1 mph N/A   Overcast
11:38 AM 62.2 °F 36.3 °F 38% 29.80 in 10.0 mi South 9.2 mph 19.6 mph N/A   Overcast
1:55 PM 64.8 °F 41.7 °F 43% 29.72 in 10.0 mi NNW 8.1 mph 18.4 mph N/A   Scattered Clouds
2:19 PM 64.6 °F 43.2 °F 46% 29.72 in 10.0 mi NNE 4.6 mph - N/A   Mostly Cloudy
2:37 PM 66.0 °F 44.4 °F 46% 29.73 in 10.0 mi WNW 4.6 mph - N/A   Mostly Cloudy
2:55 PM 65.8 °F 46.2 °F 49% 29.73 in 10.0 mi Calm Calm - N/A   Overcast
3:15 PM 65.8 °F 50.5 °F 58% 29.73 in 10.0 mi WSW 17.3 mph 25.3 mph N/A   Overcast
3:35 PM 65.3 °F 55.2 °F 70% 29.73 in 10.0 mi SW 11.5 mph 19.6 mph N/A   Overcast
3:40 PM 64.9 °F 55.2 °F 71% 29.73 in 10.0 mi SSW 16.1 mph 24.2 mph N/A   Overcast
3:58 PM 64.9 °F 55.6 °F 72% 29.74 in 10.0 mi SW 13.8 mph 20.7 mph N/A   Overcast
4:16 PM 64.9 °F 56.3 °F 74% 29.75 in 10.0 mi SW 15.0 mph - N/A   Overcast
4:35 PM 64.9 °F 57.0 °F 75% 29.74 in 10.0 mi SW 6.9 mph - N/A   Overcast
4:55 PM 65.3 °F 59.5 °F 82% 29.73 in 10.0 mi SW 9.2 mph - N/A   Overcast
4:56 PM 65.3 °F 59.5 °F 82% 29.73 in 10.0 mi SSW 8.1 mph - N/A   Overcast
5:18 PM 65.3 °F 60.3 °F 84% 29.73 in 10.0 mi SSW 8.1 mph - N/A   Overcast
5:37 PM 65.5 °F 60.8 °F 85% 29.72 in 10.0 mi South 5.8 mph - N/A   Overcast
5:55 PM 65.3 °F 61.0 °F 86% 29.72 in 10.0 mi SSE 3.5 mph - N/A   Overcast
6:15 PM 64.8 °F 61.0 °F 88% 29.72 in 10.0 mi SSE 4.6 mph - N/A   Overcast
6:16 PM 64.8 °F 61.0 °F 88% 29.72 in 10.0 mi SSE 5.8 mph - N/A Rain Light Rain
6:35 PM 63.7 °F 60.8 °F 90% 29.71 in 10.0 mi South 4.6 mph - N/A Rain Light Rain
6:40 PM 63.5 °F 61.0 °F 91% 29.71 in 7.0 mi South 3.5 mph - N/A Rain Heavy Rain
6:58 PM 62.8 °F 61.2 °F 94% 29.71 in 2.5 mi South 3.5 mph - N/A   Heavy Drizzle
7:16 PM 62.6 °F 61.2 °F 95% 29.72 in 3.0 mi SSE 3.5 mph - N/A   Drizzle
7:35 PM 62.2 °F 61.2 °F 96% 29.73 in 3.0 mi South 4.6 mph - N/A   Heavy Drizzle
7:55 PM 62.6 °F 61.5 °F 96% 29.73 in 4.0 mi South 4.6 mph - N/A Rain Light Rain
7:56 PM 62.6 °F 61.5 °F 96% 29.73 in 4.0 mi South 5.8 mph - N/A Rain Light Rain
8:19 PM 63.1 °F 61.9 °F 96% 29.74 in 3.0 mi WSW 4.6 mph - N/A Rain Light Rain
8:37 PM 64.0 °F 62.8 °F 96% 29.74 in 4.0 mi SW 10.4 mph - N/A Rain Rain
8:55 PM 64.9 °F 63.9 °F 96% 29.73 in 7.0 mi SW 9.2 mph - N/A Rain Light Rain
9:15 PM 65.3 °F 64.4 °F 97% 29.72 in 3.0 mi WSW 5.8 mph - N/A Rain Heavy Rain
9:16 PM 65.3 °F 64.4 °F 97% 29.72 in 3.0 mi WSW 6.9 mph - N/A Rain Rain
9:35 PM 65.3 °F 64.4 °F 97% 29.74 in 7.0 mi West 5.8 mph - N/A   Overcast
9:39 PM 65.3 °F 64.4 °F 97% 29.74 in 7.0 mi West 4.6 mph - N/A   Overcast
9:58 PM 65.3 °F 64.0 °F 96% 29.74 in 10.0 mi NW 8.1 mph - N/A   Overcast
10:16 PM 64.6 °F 63.5 °F 96% 29.75 in 4.0 mi NW 8.1 mph 18.4 mph N/A Rain Rain
10:35 PM 63.9 °F 62.8 °F 96% 29.76 in 4.0 mi NNW 4.6 mph - N/A Rain Heavy Rain
10:55 PM 63.5 °F 62.6 °F 97% 29.72 in 5.0 mi ESE 5.8 mph - N/A Rain Light Rain
11:19 PM 63.5 °F 62.2 °F 96% 29.75 in 7.0 mi South 4.6 mph - N/A Rain Rain
11:37 PM 63.5 °F 62.2 °F 96% 29.76 in 7.0 mi NW 6.9 mph - N/A Rain Light Rain
11:55 PM 63.5 °F 62.2 °F 96% 29.80 in 10.0 mi West 6.9 mph - N/A Rain Light Rain